Starlink 31844

operational
NORAD ID: 60583 Int'l Des: 2024-150 Owner: SPXS Country: US Constellation: starlink
LEOCIRCULAR

关于 Starlink 31844

正在加载描述...

实时位置

正在加载3D地球...

即将过境

高度历史

Altitude vs Time

uPlot chart will show altitude changes over time

两行轨道根数

1 60583U 24150A 25260.06992045 -.00000385 00000-0 -88761-6 0 9998
2 60583 53.1620 33.1765 0001058 90.1770 269.9352 15.30190633 61468
Epoch: Sep 17, 2025 • Age: 24 hours

当前状态

高度 479.6 km
速度 7.63 km/s
星下点 -15.33°S, 167.88°W
发射日期 Aug 20, 2024
运行时间 1 years
类型 internet

技术详情

分类 Payload
质量 730.00 kg
干质量 700.00 kg
总质量 730.00 kg
长度 0.30 m
直径 4.10 m
跨度 29.00 m
形状 Box + pan
制造商 SPXS
平台类型 Starlink V2M
阶段状态 In Orbit
所有者/国家 SPXS/US

大型星座

Loading constellations...